Simultaneous Nadir Overpasses (SNOs) Predictions

Prediction of SNOs between AQUA and METOP-A Satellite Orbit:

Table of predicted SNOs for the next 14.0 days since TLE Epoch: 1/18/2019
Index Date (AQUA) Time (AQUA) Lat,Lon (AQUA) SZA (AQUA ) Date (METOP-A) Time (METOP-A) Lat,Lon (METOP-A) SZA (METOP-A ) Distance(km) Time Diff (sec)
1 01/21/2019 01:42:50 -74.23, -32.37 85.67 01/21/2019 01:41:44 -74.19, -35.17 85.55 84.84 66
2 01/21/2019 02:32:30 74.85, 133.75 95.00 01/21/2019 02:32:11 74.81, 133.76 94.97 3.76 19
3 01/21/2019 03:21:56 -74.88, -58.70 84.97 01/21/2019 03:22:51 -74.89, -58.68 84.97 1.33 55
4 01/23/2019 21:17:05 -74.15, 34.24 86.39 01/23/2019 21:16:00 -74.12, 31.06 86.24 96.46 65
5 01/23/2019 22:06:46 74.83,-159.77 94.35 01/23/2019 22:06:25 74.84,-159.75 94.37 1.38 21
6 01/23/2019 22:56:12 -74.86, 7.79 85.63 01/23/2019 22:57:06 -74.88, 7.67 85.62 3.67 54
7 01/26/2019 17:41:02 74.82, -93.30 93.65 01/26/2019 17:40:40 74.82, -93.40 93.67 2.82 22
8 01/26/2019 18:30:29 -74.89, 74.14 86.27 01/26/2019 18:31:20 -74.90, 74.15 86.28 1.01 51
9 01/29/2019 13:15:18 74.86, -26.98 92.97 01/29/2019 13:14:53 74.84, -26.92 92.96 2.37 25
10 01/29/2019 14:04:44 -74.88, 140.62 87.02 01/29/2019 14:05:34 -74.88, 140.50 87.02 3.48 50
11 02/01/2019 08:49:34 74.86, 39.47 92.20 02/01/2019 08:49:07 74.87, 39.55 92.21 2.49 27
12 02/01/2019 09:39:01 -74.92,-153.05 87.75 02/01/2019 09:39:48 -74.90,-153.03 87.77 1.85 47




NCC Satellite Simultaneous Nadir Overpasses (SNOs) Prediction Service
